Flag for USA

Past Weather in Reading, Pennsylvania, USA — Yesterday and Last 2 Weeks

Now
67 °F

Broken clouds.


Feels Like: 67 °F
Forecast: 67 / 51 °F
Wind: 7 mph from Southeast

Location: Reading Regional Airport
Current Time: Oct 19, 2020 at 6:07:32 pm
Latest Report: Oct 19, 2020 at 4:54 pm
Visibility: 10 mi
Pressure30.25 "Hg
Humidity: 66%
Dew Point: 55 °F
Location of ReadingLocation

Past Weather in Reading — Graph

°F

Reading Temperature Yesterday

Maximum temperature yesterday: 65 °F (at 2:54 pm)
Minimum temperature yesterday: 35 °F (at 5:54 am)
Average temperature yesterday: 51 °F

High & Low Weather Summary for the Past Weeks

 TemperatureHumidityPressure
High79 °F (Oct 7, 2:54 pm)100% (Oct 6, 2:04 am)30.48 "Hg (Oct 6, 2:04 am)
Low35 °F (Oct 18, 5:54 am)27% (Oct 17, 3:54 pm)29.63 "Hg (Oct 7, 2:54 pm)
Average57 °F75%30.08 "Hg
* Reported Oct 4 3:54 pm — Oct 19 3:54 pm, Reading. Weather by CustomWeather, © 2020

Note: Actual official high and low records may vary slightly from our data, if they occured in-between our weather recording intervals... More about our weather records

Reading Weather History for the Previous 24 Hours

Scroll right to see more
 ConditionsComfort  
Time TempWeatherWind HumidityBarometerVisibility
3:54 pm
Mon, Oct 19
67 °FPartly sunny.3 mph68%30.25 "Hg10 mi
2:54 pm66 °FPartly sunny.8 mph70%30.25 "Hg10 mi
1:54 pm63 °FPartly sunny.3 mph78%30.29 "Hg10 mi
1:01 pm62 °FPartly sunny.6 mph80%30.29 "Hg10 mi
11:54 am62 °FPartly sunny.8 mph80%30.31 "Hg10 mi
10:54 am61 °FPartly sunny.8 mph81%30.32 "Hg10 mi
9:54 am57 °FMostly cloudy.7 mph87%30.33 "Hg10 mi
8:54 am53 °FMostly cloudy.No wind96%30.33 "Hg10 mi
7:54 am50 °FBroken clouds.No wind100%30.33 "Hg10 mi
6:54 am51 °FPassing clouds.3 mph92%30.32 "Hg10 mi
3:54 am52 °FClear.3 mph93%30.31 "Hg10 mi
2:54 am53 °FClear.5 mph89%30.32 "Hg10 mi
1:54 am56 °FOvercast.5 mph84%30.34 "Hg10 mi
12:54 am57 °FOvercast.5 mph78%30.34 "Hg10 mi
11:54 pm
Sun, Oct 18
57 °FOvercast.7 mph78%30.34 "Hg10 mi
10:54 pm57 °FMostly cloudy.5 mph78%30.35 "Hg10 mi
9:54 pm57 °FOvercast.6 mph74%30.35 "Hg10 mi
8:54 pm56 °FPassing clouds.5 mph75%30.35 "Hg10 mi
7:54 pm57 °FPassing clouds.6 mph69%30.32 "Hg10 mi
6:54 pm60 °FPassing clouds.6 mph60%30.34 "Hg10 mi
Weather by CustomWeather, © 2020

See weather overview